Location: *
(28.3744°N, 81.5492°W)
Time: 03:25:07
(UTC+00:00)

Cosmos 158 Rocket - Pass Details

Date: 15 June 2025
Orbit: 695 x 786 km, 74.0° (Epoch: 11 July)

Event Time Altitude Azimuth Distance (km) Brightness Sun altitude
Rises 07:32:20 0° 345° (NNW) 3,152 7.7 -30.1°
Reaches altitude 10° 07:34:43 10° 347° (NNW) 2,214 6.9 -29.8°
Enters shadow 07:38:30 52° 358° (N) 887 4.5 -29.3°
